| time (UTC) | temp F | wind direction | speed MPH | gust MPH | rain 1hr in | rain 24hr in | rain mn in | humidity % | barometer mb |
| 20260504150902 | 68 | 261 | 6.0 | 15.0 | 0.00 | 0.00 | 0.00 | 34 | 1008.1 |
| 20260504150402 | 68 | 298 | 8.0 | 15.0 | 0.00 | 0.00 | 0.00 | 34 | 1008.1 |
| 20260504140903 | 64 | 315 | 4.0 | 14.0 | 0.00 | 0.00 | 0.00 | 39 | 1008.6 |
| 20260504140342 | 64 | 300 | 5.0 | 12.0 | 0.00 | 0.00 | 0.00 | 39 | 1008.6 |
| 20260504130350 | 59 | 291 | 5.0 | 15.0 | 0.00 | 0.00 | 0.00 | 45 | 1009.5 |
| 20260504110404 | 49 | 256 | 1.0 | 4.0 | 0.00 | 0.00 | 0.00 | 58 | 1009.8 |
| 20260504100344 | 46 | 344 | 1.0 | 2.0 | 0.00 | 0.00 | 0.00 | 62 | 1009.8 |
| 20260504081851 | 45 | 331 | 0.0 | 0.0 | 0.00 | 0.00 | 0.00 | 64 | 1009.7 |
| 20260504081359 | 45 | 331 | 0.0 | 0.0 | 0.00 | 0.00 | 0.00 | 64 | 1009.6 |
| 20260504080846 | 45 | 331 | 0.0 | 0.0 | 0.00 | 0.00 | 0.00 | 66 | 1009.7 |
| 20260504080408 | 44 | 331 | 0.0 | 0.0 | 0.00 | 0.00 | 0.00 | 66 | 1009.6 |
| 20260504070357 | 43 | 331 | 0.0 | 0.0 | 0.00 | 0.00 | 0.00 | 72 | 1009.7 |
| 20260504050351 | 40 | 331 | 0.0 | 0.0 | 0.00 | 0.00 | 0.00 | 72 | 1009.7 |
| 20260504045921 | 40 | 331 | 0.0 | 0.0 | 0.00 | 0.00 | 0.00 | 72 | 1009.6 |
| 20260504045345 | 40 | 331 | 0.0 | 1.0 | 0.00 | 0.00 | 0.00 | 72 | 1009.6 |
| 20260504044850 | 40 | 331 | 0.0 | 1.0 | 0.00 | 0.00 | 0.00 | 72 | 1009.7 |
| 20260504044355 | 41 | 331 | 0.0 | 1.0 | 0.00 | 0.00 | 0.00 | 71 | 1009.6 |
| 20260504043921 | 41 | 331 | 0.0 | 2.0 | 0.00 | 0.00 | 0.00 | 71 | 1009.6 |
| 20260504043343 | 41 | 331 | 0.0 | 0.0 | 0.00 | 0.00 | 0.00 | 70 | 1009.7 |
| 20260504042909 | 41 | 331 | 0.0 | 0.0 | 0.00 | 0.00 | 0.00 | 70 | 1009.6 |
| 20260504042354 | 41 | 331 | 0.0 | 0.0 | 0.00 | 0.00 | 0.00 | 69 | 1009.5 |
| 20260504041855 | 41 | 331 | 0.0 | 0.0 | 0.00 | 0.00 | 0.00 | 69 | 1009.6 |
| 20260504041359 | 41 | 331 | 0.0 | 0.0 | 0.00 | 0.00 | 0.00 | 69 | 1009.6 |
| 20260504040903 | 41 | 331 | 0.0 | 0.0 | 0.00 | 0.00 | 0.00 | 69 | 1009.5 |
| 20260504040357 | 41 | 331 | 0.0 | 0.0 | 0.00 | 0.00 | 0.00 | 69 | 1009.4 |
| 20260504035901 | 41 | 331 | 0.0 | 1.0 | 0.00 | 0.00 | 0.00 | 69 | 1009.4 |
| 20260504035347 | 41 | 331 | 0.0 | 1.0 | 0.00 | 0.00 | 0.00 | 69 | 1009.3 |
| 20260504034913 | 41 | 331 | 0.0 | 0.0 | 0.00 | 0.00 | 0.00 | 68 | 1009.3 |
| 20260504034357 | 42 | 331 | 0.0 | 0.0 | 0.00 | 0.00 | 0.00 | 68 | 1009.3 |
| 20260504033902 | 42 | 331 | 0.0 | 0.0 | 0.00 | 0.00 | 0.00 | 68 | 1009.1 |
| 20260504033345 | 42 | 331 | 0.0 | 0.0 | 0.00 | 0.00 | 0.00 | 67 | 1009.2 |
| 20260504032849 | 42 | 331 | 0.0 | 0.0 | 0.00 | 0.00 | 0.00 | 67 | 1009.2 |
| 20260504032352 | 42 | 331 | 0.0 | 0.0 | 0.00 | 0.00 | 0.00 | 66 | 1009.1 |
| 20260504031853 | 43 | 331 | 0.0 | 0.0 | 0.00 | 0.00 | 0.00 | 66 | 1009.2 |
| 20260504031356 | 43 | 331 | 0.0 | 0.0 | 0.00 | 0.00 | 0.00 | 66 | 1009.1 |
| 20260504030900 | 43 | 331 | 0.0 | 0.0 | 0.00 | 0.00 | 0.00 | 66 | 1009.1 |
| 20260504030342 | 43 | 331 | 0.0 | 0.0 | 0.00 | 0.00 | 0.00 | 66 | 1009.1 |
| 20260504025855 | 43 | 331 | 0.0 | 0.0 | 0.00 | 0.00 | 0.00 | 66 | 1009.1 |
| 20260504025341 | 44 | 331 | 0.0 | 0.0 | 0.00 | 0.00 | 0.00 | 66 | 1009.0 |
| 20260504024846 | 44 | 331 | 0.0 | 0.0 | 0.00 | 0.00 | 0.00 | 65 | 1009.0 |
| 20260504024353 | 44 | 331 | 0.0 | 0.0 | 0.00 | 0.00 | 0.00 | 65 | 1009.0 |
| 20260504023859 | 44 | 331 | 0.0 | 0.0 | 0.00 | 0.00 | 0.00 | 65 | 1009.0 |
| 20260504023342 | 44 | 331 | 0.0 | 0.0 | 0.00 | 0.00 | 0.00 | 64 | 1008.9 |
| 20260504022909 | 44 | 331 | 0.0 | 0.0 | 0.00 | 0.00 | 0.00 | 64 | 1008.9 |
| 20260504022415 | 45 | 331 | 0.0 | 0.0 | 0.00 | 0.00 | 0.00 | 63 | 1009.0 |
| 20260504021855 | 45 | 331 | 0.0 | 0.0 | 0.00 | 0.00 | 0.00 | 62 | 1008.9 |
| 20260504021359 | 45 | 331 | 0.0 | 1.0 | 0.00 | 0.00 | 0.00 | 61 | 1008.9 |
| 20260504020859 | 45 | 331 | 0.0 | 1.0 | 0.00 | 0.00 | 0.00 | 60 | 1008.9 |
| 20260504020400 | 46 | 331 | 0.0 | 0.0 | 0.00 | 0.00 | 0.00 | 59 | 1008.8 |
| 20260504015849 | 46 | 331 | 0.0 | 0.0 | 0.00 | 0.00 | 0.00 | 58 | 1008.8 |
| 20260504015354 | 46 | 331 | 0.0 | 0.0 | 0.00 | 0.00 | 0.00 | 57 | 1008.8 |
| 20260504014856 | 46 | 331 | 0.0 | 0.0 | 0.00 | 0.00 | 0.00 | 56 | 1008.7 |
| 20260504014400 | 47 | 331 | 0.0 | 0.0 | 0.00 | 0.00 | 0.00 | 55 | 1008.7 |
| 20260504013849 | 47 | 331 | 0.0 | 0.0 | 0.00 | 0.00 | 0.00 | 54 | 1008.7 |
| 20260504013353 | 47 | 331 | 0.0 | 0.0 | 0.00 | 0.00 | 0.00 | 54 | 1008.6 |
| 20260504012858 | 48 | 331 | 0.0 | 0.0 | 0.00 | 0.00 | 0.00 | 53 | 1008.6 |
| 20260504012344 | 48 | 331 | 0.0 | 0.0 | 0.00 | 0.00 | 0.00 | 52 | 1008.6 |
| 20260504011906 | 48 | 331 | 0.0 | 0.0 | 0.00 | 0.00 | 0.00 | 52 | 1008.5 |
| 20260504011352 | 48 | 331 | 0.0 | 2.0 | 0.00 | 0.00 | 0.00 | 51 | 1008.5 |
| 20260504010858 | 48 | 331 | 0.0 | 2.0 | 0.00 | 0.00 | 0.00 | 51 | 1008.4 |
| 20260504010342 | 49 | 331 | 0.0 | 0.0 | 0.00 | 0.00 | 0.00 | 50 | 1008.4 |
| 20260504005911 | 49 | 331 | 0.0 | 0.0 | 0.00 | 0.00 | 0.00 | 50 | 1008.3 |
| 20260504005354 | 49 | 331 | 0.0 | 0.0 | 0.00 | 0.00 | 0.00 | 49 | 1008.2 |
| 20260504004855 | 50 | 331 | 0.0 | 0.0 | 0.00 | 0.00 | 0.00 | 47 | 1008.1 |
| 20260504004356 | 50 | 331 | 0.0 | 0.0 | 0.00 | 0.00 | 0.00 | 47 | 1008.1 |
| 20260504003900 | 50 | 331 | 0.0 | 0.0 | 0.00 | 0.00 | 0.00 | 46 | 1008.0 |
| 20260504003344 | 50 | 331 | 0.0 | 0.0 | 0.00 | 0.00 | 0.00 | 46 | 1007.9 |
| 20260504002852 | 51 | 331 | 0.0 | 0.0 | 0.00 | 0.00 | 0.00 | 45 | 1007.9 |
| 20260504002417 | 51 | 331 | 0.0 | 2.0 | 0.00 | 0.00 | 0.00 | 44 | 1007.8 |
| 20260504001841 | 51 | 331 | 1.0 | 3.0 | 0.00 | 0.00 | 0.00 | 44 | 1007.8 |
| 20260504001349 | 51 | 331 | 1.0 | 3.0 | 0.00 | 0.00 | 0.00 | 43 | 1007.8 |
| 20260504000855 | 51 | 331 | 2.0 | 4.0 | 0.00 | 0.00 | 0.00 | 43 | 1007.7 |
| 20260504000357 | 52 | 331 | 1.0 | 4.0 | 0.00 | 0.00 | 0.00 | 42 | 1007.6 |
| 20260503235849 | 52 | 331 | 1.0 | 7.0 | 0.00 | 0.00 | 0.00 | 42 | 1007.6 |
| 20260503235356 | 52 | 334 | 1.0 | 7.0 | 0.00 | 0.00 | 0.00 | 42 | 1007.6 |
| 20260503234843 | 52 | 327 | 3.0 | 8.0 | 0.00 | 0.00 | 0.00 | 41 | 1007.5 |
| 20260503234351 | 52 | 342 | 4.0 | 8.0 | 0.00 | 0.00 | 0.00 | 41 | 1007.5 |
| 20260503233919 | 52 | 284 | 3.0 | 12.0 | 0.00 | 0.00 | 0.00 | 41 | 1007.4 |
| 20260503233420 | 52 | 335 | 3.0 | 12.0 | 0.00 | 0.00 | 0.00 | 41 | 1007.3 |
| 20260503232843 | 53 | 311 | 4.0 | 10.0 | 0.00 | 0.00 | 0.00 | 40 | 1007.2 |
| 20260503232349 | 53 | 292 | 3.0 | 9.0 | 0.00 | 0.00 | 0.00 | 40 | 1007.2 |
| 20260503231914 | 53 | 324 | 3.0 | 9.0 | 0.00 | 0.00 | 0.00 | 40 | 1007.1 |
| 20260503231355 | 53 | 337 | 3.0 | 9.0 | 0.00 | 0.00 | 0.00 | 40 | 1007.1 |
| 20260503230840 | 53 | 289 | 3.0 | 9.0 | 0.00 | 0.00 | 0.00 | 40 | 1007.0 |
| 20260503230342 | 53 | 314 | 1.0 | 9.0 | 0.00 | 0.00 | 0.00 | 39 | 1006.9 |
| 20260503225851 | 53 | 41 | 4.0 | 15.0 | 0.00 | 0.00 | 0.00 | 39 | 1006.9 |
| 20260503225356 | 53 | 317 | 5.0 | 15.0 | 0.00 | 0.00 | 0.00 | 39 | 1006.9 |
| 20260503224858 | 53 | 54 | 3.0 | 10.0 | 0.00 | 0.00 | 0.00 | 39 | 1006.9 |
| 20260503224359 | 53 | 315 | 4.0 | 10.0 | 0.00 | 0.00 | 0.00 | 39 | 1006.8 |
| 20260503223847 | 53 | 344 | 4.0 | 8.0 | 0.00 | 0.00 | 0.00 | 39 | 1006.7 |
| 20260503223410 | 53 | 336 | 2.0 | 14.0 | 0.00 | 0.00 | 0.00 | 39 | 1006.6 |
| 20260503222853 | 53 | 334 | 5.0 | 14.0 | 0.00 | 0.00 | 0.00 | 39 | 1006.7 |
| 20260503222339 | 53 | 355 | 3.0 | 12.0 | 0.00 | 0.00 | 0.00 | 39 | 1006.6 |
| 20260503221843 | 53 | 317 | 4.0 | 11.0 | 0.00 | 0.00 | 0.00 | 38 | 1006.5 |
| 20260503221350 | 53 | 309 | 4.0 | 10.0 | 0.00 | 0.00 | 0.00 | 39 | 1006.4 |
| 20260503220857 | 53 | 297 | 4.0 | 9.0 | 0.00 | 0.00 | 0.00 | 39 | 1006.4 |
| 20260503220357 | 53 | 344 | 4.0 | 12.0 | 0.00 | 0.00 | 0.00 | 39 | 1006.3 |
| 20260503215848 | 53 | 291 | 4.0 | 12.0 | 0.00 | 0.00 | 0.00 | 39 | 1006.2 |
| 20260503215355 | 53 | 336 | 3.0 | 11.0 | 0.00 | 0.00 | 0.00 | 39 | 1006.2 |
| 20260503214900 | 53 | 321 | 5.0 | 15.0 | 0.00 | 0.00 | 0.00 | 39 | 1006.1 |
| 20260503214346 | 54 | 350 | 7.0 | 15.0 | 0.00 | 0.00 | 0.00 | 39 | 1006.0 |
| 20260503213852 | 54 | 295 | 6.0 | 12.0 | 0.00 | 0.00 | 0.00 | 39 | 1006.0 |
| 20260503213357 | 54 | 16 | 6.0 | 11.0 | 0.00 | 0.00 | 0.00 | 39 | 1005.8 |
| 20260503212903 | 54 | 32 | 2.0 | 11.0 | 0.00 | 0.00 | 0.00 | 40 | 1005.8 |
| 20260503212408 | 54 | 346 | 5.0 | 11.0 | 0.00 | 0.00 | 0.00 | 39 | 1005.8 |
| 20260503211852 | 54 | 326 | 5.0 | 16.0 | 0.00 | 0.00 | 0.00 | 39 | 1005.7 |
| 20260503211358 | 54 | 315 | 5.0 | 16.0 | 0.00 | 0.00 | 0.00 | 39 | 1005.7 |
| 20260503210845 | 54 | 306 | 4.0 | 15.0 | 0.00 | 0.00 | 0.00 | 39 | 1005.5 |
| 20260503210347 | 54 | 288 | 6.0 | 15.0 | 0.00 | 0.00 | 0.00 | 39 | 1005.5 |
| 20260503205858 | 55 | 279 | 5.0 | 14.0 | 0.00 | 0.00 | 0.00 | 40 | 1005.4 |
| 20260503205425 | 55 | 52 | 4.0 | 13.0 | 0.00 | 0.00 | 0.00 | 39 | 1005.3 |
| 20260503204848 | 55 | 312 | 4.0 | 15.0 | 0.00 | 0.00 | 0.00 | 39 | 1005.3 |
| 20260503204354 | 55 | 290 | 7.0 | 15.0 | 0.00 | 0.00 | 0.00 | 38 | 1005.1 |
| 20260503203919 | 55 | 281 | 2.0 | 7.0 | 0.00 | 0.00 | 0.00 | 39 | 1005.1 |
| 20260503203403 | 54 | 350 | 2.0 | 10.0 | 0.00 | 0.00 | 0.00 | 39 | 1005.2 |
| 20260503202848 | 54 | 286 | 3.0 | 11.0 | 0.00 | 0.00 | 0.00 | 40 | 1005.1 |
| 20260503202354 | 54 | 40 | 4.0 | 11.0 | 0.00 | 0.00 | 0.00 | 40 | 1005.0 |
| 20260503201859 | 54 | 355 | 1.0 | 9.0 | 0.00 | 0.00 | 0.00 | 41 | 1004.9 |
| 20260503201425 | 54 | 32 | 5.0 | 12.0 | 0.00 | 0.00 | 0.00 | 40 | 1004.8 |
| 20260503200910 | 54 | 304 | 2.0 | 12.0 | 0.00 | 0.00 | 0.00 | 41 | 1005.0 |
| 20260503200408 | 54 | 334 | 1.0 | 12.0 | 0.00 | 0.00 | 0.00 | 41 | 1005.0 |
| 20260503195858 | 54 | 344 | 4.0 | 11.0 | 0.00 | 0.00 | 0.00 | 41 | 1004.9 |
| 20260503195402 | 54 | 294 | 4.0 | 10.0 | 0.00 | 0.00 | 0.00 | 43 | 1005.0 |
| 20260503194846 | 54 | 41 | 4.0 | 15.0 | 0.00 | 0.00 | 0.00 | 43 | 1005.0 |
| 20260503194354 | 54 | 316 | 4.0 | 15.0 | 0.00 | 0.00 | 0.00 | 43 | 1005.0 |
| 20260503193857 | 54 | 13 | 4.0 | 9.0 | 0.00 | 0.00 | 0.00 | 43 | 1004.9 |
| 20260503193400 | 54 | 59 | 4.0 | 11.0 | 0.00 | 0.00 | 0.00 | 42 | 1005.0 |
| 20260503192903 | 54 | 325 | 4.0 | 11.0 | 0.00 | 0.00 | 0.00 | 42 | 1005.0 |
| 20260503192348 | 54 | 17 | 2.0 | 17.0 | 0.00 | 0.00 | 0.00 | 44 | 1005.0 |
| 20260503191853 | 54 | 360 | 4.0 | 17.0 | 0.00 | 0.00 | 0.00 | 44 | 1005.0 |
| 20260503191358 | 54 | 298 | 3.0 | 14.0 | 0.00 | 0.00 | 0.00 | 44 | 1005.0 |
| 20260503190844 | 54 | 303 | 4.0 | 10.0 | 0.00 | 0.00 | 0.00 | 46 | 1005.0 |
| 20260503190401 | 54 | 325 | 3.0 | 10.0 | 0.00 | 0.00 | 0.00 | 46 | 1005.0 |
| 20260503185847 | 54 | 11 | 2.0 | 10.0 | 0.00 | 0.00 | 0.00 | 46 | 1005.1 |
| 20260503185353 | 54 | 309 | 3.0 | 14.0 | 0.00 | 0.00 | 0.00 | 45 | 1005.1 |
| 20260503184858 | 55 | 344 | 3.0 | 8.0 | 0.00 | 0.00 | 0.00 | 46 | 1005.1 |
| 20260503184403 | 55 | 302 | 2.0 | 7.0 | 0.00 | 0.00 | 0.00 | 47 | 1005.0 |
| 20260503183852 | 54 | 344 | 1.0 | 8.0 | 0.00 | 0.00 | 0.00 | 48 | 1005.1 |
| 20260503183356 | 53 | 355 | 1.0 | 8.0 | 0.00 | 0.00 | 0.00 | 49 | 1005.2 |
| 20260503182903 | 53 | 289 | 3.0 | 8.0 | 0.00 | 0.00 | 0.00 | 49 | 1005.2 |
| 20260503182349 | 52 | 342 | 4.0 | 9.0 | 0.00 | 0.00 | 0.00 | 50 | 1005.2 |
| 20260503181853 | 52 | 318 | 2.0 | 12.0 | 0.00 | 0.00 | 0.00 | 51 | 1005.2 |
| 20260503181400 | 52 | 355 | 5.0 | 12.0 | 0.00 | 0.00 | 0.00 | 51 | 1005.3 |
| 20260503180846 | 52 | 355 | 3.0 | 11.0 | 0.00 | 0.00 | 0.00 | 51 | 1005.3 |
| 20260503180346 | 52 | 320 | 2.0 | 11.0 | 0.00 | 0.00 | 0.00 | 52 | 1005.4 |
| 20260503175917 | 52 | 75 | 2.0 | 11.0 | 0.00 | 0.00 | 0.00 | 54 | 1005.3 |
| 20260503175421 | 52 | 38 | 4.0 | 16.0 | 0.00 | 0.00 | 0.00 | 52 | 1005.3 |
| 20260503174904 | 53 | 326 | 3.0 | 16.0 | 0.00 | 0.00 | 0.00 | 52 | 1005.2 |
| 20260503174351 | 53 | 27 | 3.0 | 9.0 | 0.00 | 0.00 | 0.00 | 52 | 1005.2 |
| 20260503173858 | 53 | 13 | 5.0 | 16.0 | 0.00 | 0.00 | 0.00 | 51 | 1005.1 |
| 20260503173403 | 53 | 323 | 4.0 | 16.0 | 0.00 | 0.00 | 0.00 | 51 | 1005.1 |
| 20260503172847 | 53 | 325 | 3.0 | 14.0 | 0.00 | 0.00 | 0.00 | 51 | 1005.2 |
| 20260503172354 | 53 | 28 | 4.0 | 14.0 | 0.00 | 0.00 | 0.00 | 51 | 1005.2 |
| 20260503171857 | 53 | 295 | 5.0 | 16.0 | 0.00 | 0.00 | 0.00 | 51 | 1005.3 |
| 20260503171403 | 53 | 337 | 5.0 | 16.0 | 0.00 | 0.00 | 0.00 | 50 | 1005.2 |
| 20260503170850 | 53 | 340 | 4.0 | 11.0 | 0.00 | 0.00 | 0.00 | 52 | 1005.0 |
| 20260503170352 | 52 | 345 | 3.0 | 11.0 | 0.00 | 0.00 | 0.00 | 52 | 1005.0 |